Location: Unspecified
(0.0000°N, 0.0000°E)
Time: 09:13:46
(UTC+00:00)

A-11 Canister half - Visible Passes

Search period start: 29 March 2017 00:00
Search period end: 08 April 2017 00:00
Orbit: 1527 x 1682 km, 47.3° (Epoch: 27 March)

Date Brightness Start Highest point End Pass type
(mag) Time Alt. Az. Time Alt. Az. Time Alt. Az.
29 Mar 11.1 04:20:18 10° S 04:26:12 17° SE 04:32:09 10° E visible
29 Mar 9.9 19:14:34 10° WNW 19:23:22 45° SW 19:32:07 10° SSE visible
30 Mar 11.2 03:59:10 10° SSE 04:04:32 16° SE 04:09:56 10° E visible
30 Mar 9.8 18:52:52 10° WNW 19:01:47 49° SW 19:10:40 10° SSE visible
31 Mar 11.2 03:38:09 10° SSE 03:42:52 14° SE 03:47:37 10° ESE visible
31 Mar 9.4 05:38:19 10° SW 05:48:17 76° SE 05:58:25 10° NE visible
31 Mar 9.8 18:31:10 10° NW 18:40:13 52° SW 18:49:11 10° SSE visible
01 Apr 11.2 03:17:14 10° SSE 03:21:11 13° SE 03:25:10 10° ESE visible
01 Apr 9.5 05:16:45 10° SSW 05:26:41 71° SE 05:36:46 10° NE visible
01 Apr 9.7 18:09:28 10° NW 18:18:38 56° SW 18:27:42 10° SSE visible
02 Apr 11.2 02:56:35 10° SSE 02:59:31 11° SE 03:02:28 10° ESE visible
02 Apr 9.5 04:55:13 10° SSW 05:05:04 67° SE 05:15:05 10° NE visible
03 Apr 11.2 02:36:39 10° SE 02:37:49 10° SE 02:39:00 10° SE visible
03 Apr 9.5 04:33:43 10° SSW 04:43:28 62° SE 04:53:24 10° NE visible
03 Apr 11.4 19:40:24 10° SW 19:40:57 10° SW 19:41:30 10° SW visible
04 Apr 9.5 04:13:32 15° SSW 04:21:51 58° SE 04:31:42 10° NE visible
04 Apr 11.3 19:16:40 10° WSW 19:19:17 11° SW 19:21:54 10° SSW visible
05 Apr 9.6 03:54:14 25° SSW 04:00:15 54° SE 04:09:59 10° NE visible
05 Apr 11.2 18:54:01 10° WSW 18:57:37 13° SW 19:01:14 10° SSW visible
06 Apr 9.6 03:34:53 36° S 03:38:38 51° SE 03:48:15 10° ENE visible
06 Apr 9.7 05:34:47 10° WSW 05:43:37 36° NW 05:52:37 10° NNE visible
06 Apr 11.1 18:31:37 10° WSW 18:35:59 14° SW 18:40:21 10° SSW visible
07 Apr 9.7 03:15:27 44° SSE 03:17:02 47° SE 03:26:31 10° ENE visible
07 Apr 9.6 05:13:50 13° WSW 05:22:00 39° NW 05:31:10 10° NNE visible
